Weather History for Andrews, NC

Change the Weather History Date:

Friday, September 27, 2013

  Actual Average (KTYS) Record (KTYS)
Temperature  
Mean Temperature 62 °F 67 °F  
Max Temperature 77 °F 78 °F 90 °F (1911)
Min Temperature 48 °F 56 °F 38 °F (1899)
Degree Days  
Heating Degree Days 2 2  
Month to date heating degree days 15  
Since 1 July heating degree days 15  
Cooling Degree Days 0 4  
Month to date cooling degree days 196  
Year to date cooling degree days 1477  
Growing Degree Days 12 (Base 50)    
Moisture  
Dew Point 55 °F    
Average Humidity 82    
Maximum Humidity 100    
Minimum Humidity 43    
Precipitation  
Precipitation 0.00 in 0.11 in 2.16 in (1880)
Month to date precipitation 2.91  
Year to date precipitation 36.51  
Snow  
Snow 0.00 in 0.00 in - ()
Month to date snowfall 0.0  
Since 1 July snowfall 0.0  
Since 1 September snowfall 0.0  
Snow Depth -    
Sea Level Pressure  
Sea Level Pressure 30.13 in    
Wind  
Wind Speed 1 mph (North)    
Max Wind Speed 8 mph    
Max Gust Speed -    
Visibility 7 miles    
Events Fog    
T = Trace of Precipitation, MM = Missing Value Source: NWS Daily Summary

Daily Weather History Graph

Daily Weather History Graph

Search for Another Location

Airport:

Trip Planner

Search our weather history database for the weather conditions in past years. The results will help you decide how hot, cold, wet, or windy it might be!

Date:

Astronomy

Sep. 27, 2013 Rise Set
Actual Time 7:27 AM EDT 7:24 PM EDT
Civil Twilight 7:02 AM EDT 7:49 PM EDT
Nautical Twilight 6:32 AM EDT 8:19 PM EDT
Astronomical Twilight 6:02 AM EDT 8:49 PM EDT
Moon 12:34 AM EDT (9/27) 2:50 PM EDT (9/27)
Length of Visible Light 12h 47m
Length of Day
11h 57m
Last Quarter, 45% of the Moon is Illuminated
Sep 27
Last Quarter
Oct 4
New
Oct 11
First Quarter
Oct 18
Full
Oct 26
Last Quarter

Hourly Weather History & Observations

Time (EDT) Temp. Dew Point Humidity Pressure Visibility Wind Dir Wind Speed Gust Speed Precip Events Conditions
12:15 AM 55.4 °F 54.7 °F 97% 30.09 in 7.0 mi Calm Calm - N/A   Clear
12:35 AM 54.7 °F 54.0 °F 97% 30.09 in 7.0 mi Calm Calm - N/A   Clear
12:55 AM 54.0 °F 53.6 °F 99% 30.09 in 5.0 mi Calm Calm - N/A   Clear
1:15 AM 54.0 °F 53.6 °F 99% 30.09 in 7.0 mi Calm Calm - N/A   Scattered Clouds
1:35 AM 53.2 °F 52.7 °F 98% 30.09 in 7.0 mi Calm Calm - N/A   Scattered Clouds
1:55 AM 52.7 °F 52.5 °F 99% 30.09 in 3.0 mi Calm Calm - N/A   Scattered Clouds
2:15 AM 52.7 °F 52.5 °F 99% 30.09 in 4.0 mi Calm Calm - N/A   Mostly Cloudy
2:35 AM 52.5 °F 52.3 °F 99% 30.10 in 5.0 mi Calm Calm - N/A   Scattered Clouds
2:55 AM 52.5 °F 52.2 °F 99% 30.09 in 5.0 mi Calm Calm - N/A   Scattered Clouds
3:15 AM 51.4 °F 51.1 °F 99% 30.09 in 5.0 mi Calm Calm - N/A   Clear
3:35 AM 51.4 °F 50.9 °F 98% 30.09 in 5.0 mi Calm Calm - N/A   Scattered Clouds
3:55 AM 51.1 °F 51.1 °F 100% 30.09 in 1.0 mi Calm Calm - N/A   Overcast
4:15 AM 51.6 °F 51.6 °F 100% 30.09 in 0.5 mi Calm Calm - N/A Fog Fog
4:35 AM 50.4 °F 50.2 °F 99% 30.10 in 0.5 mi Calm Calm - N/A Fog Fog
4:55 AM 50.5 °F 50.5 °F 100% 30.10 in 0.5 mi Calm Calm - N/A Fog Fog
5:15 AM 50.9 °F 50.9 °F 100% 30.11 in 0.2 mi Calm Calm - N/A Fog Fog
5:35 AM 50.4 °F 50.4 °F 100% 30.11 in 0.2 mi Calm Calm - N/A Fog Fog
5:55 AM 50.2 °F 50.0 °F 99% 30.11 in 0.2 mi Calm Calm - N/A Fog Fog
6:15 AM 49.6 °F 49.6 °F 100% 30.12 in 0.5 mi Calm Calm - N/A Fog Fog
6:35 AM 49.5 °F 49.5 °F 100% 30.13 in 0.5 mi Calm Calm - N/A Fog Fog
6:55 AM 49.1 °F 49.1 °F 100% 30.14 in 0.2 mi Calm Calm - N/A Fog Fog
7:15 AM 49.1 °F 49.1 °F 100% 30.15 in 0.8 mi Calm Calm - N/A   Overcast
7:35 AM 48.7 °F 48.7 °F 100% 30.15 in 0.2 mi Calm Calm - N/A Fog Fog
7:55 AM 48.4 °F 48.4 °F 100% 30.17 in 0.2 mi Calm Calm - N/A Fog Fog
8:15 AM 49.5 °F 49.5 °F 100% 30.17 in 2.0 mi Calm Calm - N/A   Mostly Cloudy
8:35 AM 50.9 °F 50.9 °F 100% 30.18 in 2.5 mi Calm Calm - N/A   Scattered Clouds
8:55 AM 52.5 °F 52.5 °F 100% 30.18 in 7.0 mi Calm Calm - N/A   Scattered Clouds
9:15 AM 54.1 °F 54.0 °F 99% 30.18 in 10.0 mi Calm Calm - N/A   Clear
9:35 AM 56.3 °F 55.6 °F 97% 30.18 in 10.0 mi Calm Calm - N/A   Clear
9:55 AM 58.8 °F 57.4 °F 95% 30.18 in 10.0 mi Calm Calm - N/A   Clear
10:15 AM 60.6 °F 57.4 °F 89% 30.19 in 10.0 mi Calm Calm - N/A   Clear
10:35 AM 63.5 °F 58.8 °F 85% 30.19 in 10.0 mi ENE 3.5 mph - N/A   Clear
10:55 AM 66.9 °F 57.7 °F 72% 30.18 in 10.0 mi Calm Calm - N/A   Clear
11:15 AM 67.8 °F 59.2 °F 74% 30.18 in 10.0 mi Calm Calm - N/A   Clear
11:35 AM 69.3 °F 58.6 °F 69% 30.18 in 10.0 mi Calm Calm - N/A   Clear
11:55 AM 71.1 °F 57.7 °F 63% 30.18 in 10.0 mi Calm Calm - N/A   Clear
12:15 PM 70.9 °F 56.5 °F 60% 30.18 in 10.0 mi Calm Calm - N/A   Clear
12:35 PM 72.7 °F 57.4 °F 59% 30.17 in 10.0 mi Calm Calm - N/A   Scattered Clouds
12:55 PM 73.9 °F 56.3 °F 54% 30.16 in 10.0 mi NW 5.8 mph - N/A   Mostly Cloudy
1:15 PM 74.1 °F 54.9 °F 51% 30.15 in 10.0 mi NE 5.8 mph - N/A   Scattered Clouds
1:35 PM 75.9 °F 52.9 °F 45% 30.15 in 10.0 mi NE 6.9 mph - N/A   Clear
1:55 PM 75.6 °F 53.6 °F 46% 30.14 in 10.0 mi NNE 6.9 mph - N/A   Clear
2:15 PM 75.9 °F 52.5 °F 44% 30.13 in 10.0 mi East 3.5 mph - N/A   Clear
2:35 PM 75.9 °F 52.2 °F 43% 30.12 in 10.0 mi NNW 3.5 mph - N/A   Scattered Clouds
2:55 PM 75.9 °F 53.8 °F 46% 30.12 in 10.0 mi NNE 8.1 mph - N/A   Clear
3:15 PM 77.2 °F 53.6 °F 44% 30.11 in 10.0 mi East 3.5 mph - N/A   Clear
3:35 PM 77.2 °F 55.0 °F 46% 30.11 in 10.0 mi North 4.6 mph - N/A   Mostly Cloudy
3:55 PM 76.6 °F 53.8 °F 45% 30.10 in 10.0 mi Calm Calm - N/A   Scattered Clouds
4:15 PM 76.3 °F 55.2 °F 48% 30.10 in 10.0 mi Calm Calm - N/A   Scattered Clouds
4:35 PM 75.2 °F 54.5 °F 48% 30.10 in 10.0 mi Calm Calm - N/A   Mostly Cloudy
4:55 PM 75.9 °F 56.3 °F 50% 30.10 in 10.0 mi WNW 3.5 mph - N/A   Mostly Cloudy
5:15 PM 76.1 °F 56.7 °F 51% 30.09 in 10.0 mi North 4.6 mph - N/A   Scattered Clouds
5:35 PM 75.6 °F 57.2 °F 53% 30.09 in 10.0 mi NW 4.6 mph - N/A   Clear
5:55 PM 74.8 °F 58.1 °F 56% 30.10 in 10.0 mi NNW 3.5 mph - N/A   Clear
6:15 PM 73.4 °F 59.2 °F 61% 30.10 in 10.0 mi NNW 3.5 mph - N/A   Clear
6:35 PM 71.6 °F 59.0 °F 64% 30.10 in 10.0 mi NNW 3.5 mph - N/A   Clear
6:55 PM 69.3 °F 60.3 °F 73% 30.10 in 10.0 mi Calm Calm - N/A   Clear
7:15 PM 65.7 °F 60.6 °F 84% 30.11 in 10.0 mi Calm Calm - N/A   Clear
7:35 PM 63.5 °F 59.5 °F 87% 30.11 in 10.0 mi Calm Calm - N/A   Clear
7:55 PM 62.4 °F 59.2 °F 89% 30.12 in 10.0 mi Calm Calm - N/A   Clear
8:15 PM 61.5 °F 59.0 °F 91% 30.12 in 10.0 mi Calm Calm - N/A   Clear
8:35 PM 59.5 °F 58.1 °F 95% 30.13 in 10.0 mi Calm Calm - N/A   Clear
8:55 PM 60.1 °F 58.5 °F 94% 30.14 in 10.0 mi Calm Calm - N/A   Scattered Clouds
9:15 PM 59.0 °F 57.6 °F 95% 30.15 in 10.0 mi Calm Calm - N/A   Scattered Clouds
9:35 PM 59.4 °F 58.5 °F 97% 30.16 in 10.0 mi Calm Calm - N/A   Scattered Clouds
9:55 PM 58.8 °F 57.4 °F 95% 30.17 in 10.0 mi Calm Calm - N/A   Mostly Cloudy
10:15 PM 58.1 °F 57.4 °F 97% 30.17 in 10.0 mi Calm Calm - N/A   Overcast
10:35 PM 59.0 °F 58.1 °F 97% 30.18 in 10.0 mi Calm Calm - N/A   Mostly Cloudy
10:55 PM 58.5 °F 57.4 °F 96% 30.18 in 10.0 mi Calm Calm - N/A   Mostly Cloudy
11:15 PM 58.5 °F 57.7 °F 97% 30.18 in 10.0 mi Calm Calm - N/A   Mostly Cloudy
11:35 PM 57.4 °F 57.0 °F 99% 30.18 in 7.0 mi Calm Calm - N/A   Mostly Cloudy
11:55 PM 57.9 °F 57.4 °F 98% 30.18 in 7.0 mi Calm Calm - N/A   Overcast